TimeAKDT,TemperatureF,Dew PointF,Humidity,Sea Level PressureIn,VisibilityMPH,Wind Direction,Wind SpeedMPH,Gust SpeedMPH,PrecipitationIn,Events,Conditions,WindDirDegrees,DateUTC
12:16 AM,53.6,51.8,94,29.14,10.0,SSE,19.6,24.2,N/A,,Overcast,160,2013-09-03 08:16:00
12:36 AM,55.4,50.0,82,29.14,10.0,SSE,17.3,-,N/A,,Overcast,150,2013-09-03 08:36:00
12:56 AM,53.6,50.0,88,29.14,10.0,SSE,18.4,-,N/A,,Overcast,160,2013-09-03 08:56:00
1:16 AM,53.6,50.0,88,29.14,10.0,SSE,19.6,-,N/A,,Overcast,160,2013-09-03 09:16:00
1:36 AM,53.6,50.0,88,29.13,10.0,SSE,20.7,-,N/A,,Overcast,160,2013-09-03 09:36:00
1:56 AM,53.6,48.2,82,29.13,10.0,South,17.3,-,N/A,,Overcast,170,2013-09-03 09:56:00
2:16 AM,53.6,48.2,82,29.13,10.0,South,19.6,-,N/A,,Overcast,170,2013-09-03 10:16:00
2:36 AM,53.6,48.2,82,29.13,10.0,South,24.2,-,N/A,,Overcast,170,2013-09-03 10:36:00
2:56 AM,53.6,48.2,82,29.13,10.0,South,20.7,-,N/A,,Overcast,170,2013-09-03 10:56:00
3:16 AM,53.6,48.2,82,29.12,8.0,South,24.2,28.8,N/A,,Overcast,170,2013-09-03 11:16:00
3:36 AM,53.6,48.2,82,29.11,9.0,South,25.3,-,N/A,,Overcast,170,2013-09-03 11:36:00
3:56 AM,53.6,50.0,88,29.11,8.0,South,21.9,-,N/A,,Mostly Cloudy,170,2013-09-03 11:56:00
4:16 AM,51.8,50.0,94,29.11,9.0,South,21.9,-,0.01,,Overcast,170,2013-09-03 12:16:00
4:36 AM,51.8,48.2,88,29.10,7.0,South,23.0,-,0.02,,Mostly Cloudy,180,2013-09-03 12:36:00
4:56 AM,51.8,50.0,94,29.11,7.0,South,18.4,-,0.03,,Mostly Cloudy,190,2013-09-03 12:56:00
5:16 AM,51.8,50.0,94,29.10,9.0,South,17.3,-,N/A,,Overcast,180,2013-09-03 13:16:00
5:36 AM,51.8,50.0,94,29.10,10.0,South,18.4,-,N/A,,Overcast,170,2013-09-03 13:36:00
5:56 AM,51.8,48.2,88,29.10,9.0,South,18.4,-,N/A,,Overcast,170,2013-09-03 13:56:00
6:16 AM,51.8,50.0,94,29.09,8.0,SSE,20.7,-,0.02,,Mostly Cloudy,160,2013-09-03 14:16:00
6:36 AM,51.8,50.0,94,29.09,8.0,SSE,20.7,-,0.02,,Mostly Cloudy,160,2013-09-03 14:36:00
6:56 AM,51.8,48.2,88,29.09,7.0,South,20.7,-,0.04,,Overcast,170,2013-09-03 14:56:00
7:16 AM,51.8,48.2,88,29.09,9.0,South,16.1,-,N/A,,Mostly Cloudy,170,2013-09-03 15:16:00
7:36 AM,51.8,48.2,88,29.09,10.0,SSE,19.6,-,N/A,,Mostly Cloudy,160,2013-09-03 15:36:00
7:56 AM,51.8,48.2,88,29.08,8.0,SSE,20.7,-,N/A,,Overcast,150,2013-09-03 15:56:00
8:16 AM,51.8,48.2,88,29.07,10.0,SSE,24.2,-,N/A,,Overcast,160,2013-09-03 16:16:00
8:36 AM,51.8,48.2,88,29.07,6.0,South,26.5,-,0.01,,Overcast,170,2013-09-03 16:36:00
8:56 AM,51.8,48.2,88,29.07,10.0,South,26.5,-,0.01,,Mostly Cloudy,180,2013-09-03 16:56:00
9:16 AM,51.8,48.2,88,29.08,10.0,South,20.7,-,N/A,,Mostly Cloudy,180,2013-09-03 17:16:00
9:36 AM,51.8,48.2,88,29.08,10.0,SSE,21.9,-,N/A,,Overcast,160,2013-09-03 17:36:00
9:56 AM,51.8,50.0,94,29.08,5.0,SSE,21.9,26.5,0.01,,Overcast,160,2013-09-03 17:56:00
10:16 AM,51.8,48.2,88,29.08,10.0,South,23.0,-,N/A,,Mostly Cloudy,170,2013-09-03 18:16:00
10:36 AM,51.8,48.2,88,29.08,10.0,South,19.6,-,N/A,,Overcast,170,2013-09-03 18:36:00
10:56 AM,51.8,48.2,88,29.09,10.0,South,19.6,-,N/A,,Overcast,190,2013-09-03 18:56:00
11:16 AM,51.8,48.2,88,29.09,10.0,South,19.6,-,N/A,,Overcast,180,2013-09-03 19:16:00
11:36 AM,53.6,48.2,82,29.09,10.0,South,18.4,-,N/A,,Overcast,180,2013-09-03 19:36:00
11:56 AM,53.6,48.2,82,29.09,10.0,South,19.6,-,N/A,,Overcast,180,2013-09-03 19:56:00
12:16 PM,53.6,48.2,82,29.10,10.0,South,20.7,-,N/A,,Overcast,180,2013-09-03 20:16:00
12:36 PM,53.6,48.2,82,29.10,9.0,South,21.9,-,N/A,,Mostly Cloudy,180,2013-09-03 20:36:00
12:56 PM,53.6,50.0,88,29.11,10.0,South,19.6,-,N/A,,Overcast,180,2013-09-03 20:56:00
1:16 PM,53.6,50.0,88,29.11,10.0,SSW,20.7,-,N/A,,Overcast,200,2013-09-03 21:16:00
1:36 PM,53.6,50.0,88,29.11,10.0,SSW,20.7,-,N/A,,Overcast,200,2013-09-03 21:36:00
1:56 PM,53.6,48.2,82,29.12,10.0,South,21.9,-,N/A,,Overcast,190,2013-09-03 21:56:00
2:16 PM,53.6,48.2,82,29.12,10.0,SSW,20.7,-,N/A,,Overcast,200,2013-09-03 22:16:00
2:36 PM,53.6,50.0,88,29.13,10.0,SSW,21.9,-,N/A,,Overcast,200,2013-09-03 22:36:00
2:56 PM,53.6,48.2,82,29.13,10.0,South,21.9,-,N/A,,Mostly Cloudy,190,2013-09-03 22:56:00
3:16 PM,53.6,48.2,82,29.13,10.0,SSW,21.9,-,N/A,,Overcast,200,2013-09-03 23:16:00
3:36 PM,53.6,48.2,82,29.14,10.0,South,23.0,-,N/A,,Overcast,190,2013-09-03 23:36:00
3:56 PM,53.6,48.2,82,29.14,10.0,South,21.9,-,N/A,,Overcast,190,2013-09-03 23:56:00
4:16 PM,53.6,48.2,82,29.14,10.0,South,19.6,-,N/A,,Overcast,190,2013-09-04 00:16:00
4:36 PM,53.6,50.0,88,29.14,10.0,South,20.7,-,N/A,,Mostly Cloudy,190,2013-09-04 00:36:00
4:56 PM,53.6,50.0,88,29.14,7.0,South,20.7,-,N/A,,Overcast,190,2013-09-04 00:56:00
5:16 PM,51.8,50.0,94,29.14,8.0,South,20.7,-,0.01,,Mostly Cloudy,190,2013-09-04 01:16:00
5:36 PM,53.6,48.2,82,29.14,10.0,South,21.9,-,0.01,,Mostly Cloudy,190,2013-09-04 01:36:00
5:56 PM,53.6,50.0,88,29.14,10.0,South,20.7,-,0.01,,Mostly Cloudy,190,2013-09-04 01:56:00
6:16 PM,51.8,50.0,94,29.14,10.0,SSW,18.4,-,0.01,,Overcast,200,2013-09-04 02:16:00
6:36 PM,53.6,48.2,82,29.14,10.0,South,18.4,-,0.01,,Overcast,190,2013-09-04 02:36:00
6:56 PM,51.8,48.2,88,29.15,10.0,South,18.4,-,0.01,,Overcast,190,2013-09-04 02:56:00
7:16 PM,51.8,48.2,88,29.15,10.0,South,19.6,-,N/A,,Overcast,190,2013-09-04 03:16:00
7:36 PM,51.8,48.2,88,29.15,10.0,SSW,17.3,-,N/A,,Overcast,200,2013-09-04 03:36:00
7:56 PM,51.8,48.2,88,29.15,10.0,SSW,19.6,-,N/A,,Overcast,200,2013-09-04 03:56:00
8:16 PM,51.8,48.2,88,29.16,10.0,SSW,19.6,-,N/A,,Mostly Cloudy,200,2013-09-04 04:16:00
8:36 PM,51.8,48.2,88,29.16,10.0,SSW,18.4,-,N/A,,Overcast,200,2013-09-04 04:36:00
8:56 PM,51.8,48.2,88,29.17,10.0,SSW,17.3,-,N/A,,Mostly Cloudy,200,2013-09-04 04:56:00
9:16 PM,51.8,48.2,88,29.17,8.0,South,18.4,-,N/A,,Mostly Cloudy,190,2013-09-04 05:16:00
9:36 PM,51.8,48.2,88,29.18,8.0,SSW,13.8,-,N/A,,Overcast,200,2013-09-04 05:36:00
9:56 PM,51.8,48.2,88,29.18,6.0,South,15.0,-,N/A,,Overcast,190,2013-09-04 05:56:00
10:16 PM,51.8,48.2,88,29.19,10.0,SSW,17.3,-,N/A,,Overcast,200,2013-09-04 06:16:00
10:36 PM,51.8,48.2,88,29.19,10.0,SSW,17.3,-,N/A,,Mostly Cloudy,200,2013-09-04 06:36:00
10:56 PM,51.8,48.2,88,29.20,10.0,SSW,18.4,-,N/A,,Mostly Cloudy,200,2013-09-04 06:56:00
11:16 PM,51.8,48.2,88,29.20,10.0,South,17.3,-,N/A,,Mostly Cloudy,190,2013-09-04 07:16:00
11:36 PM,51.8,48.2,88,29.21,10.0,SSW,17.3,-,N/A,,Mostly Cloudy,200,2013-09-04 07:36:00
11:56 PM,51.8,48.2,88,29.21,10.0,South,17.3,-,N/A,,Overcast,190,2013-09-04 07:56:00